Flag for Congo Weather past 2 weeks in Brazzaville, Congo

Now
84 °F

Scattered clouds.


Feels Like: 87 °F
Forecast: 69 / 86 °F
Wind: 6 mph from West

Location: Brazzaville / Maya-Maya

Current Time: Aug 23, 2014 at 1:29:28 PM

Latest Report: Aug 23, 2014 at 12:00 PM


Visibility: N/A

Pressure: 29.95 "Hg

Humidity: 55%

Dew point: 66 °F

Location of BrazzavilleLocation

Historic Weather in Brazzaville — Graph

°F

Brazzaville temperature yesterday

Maximum temperature yesterday: 81 °F (at 2:00 PM)
Minimum temperature yesterday: 68 °F (at 6:00 AM)
Average temperature yesterday: 75 °F

Past Weeks' High & Low Weather Summary

 TemperatureHumidityPressure
High90 °F (Aug 9, 4:00 PM)94% (Aug 16, 9:00 AM)30.07 "Hg (Aug 16, 9:00 AM)
Low66 °F (Aug 21, 5:00 AM)46% (Aug 9, 4:00 PM)29.86 "Hg (Aug 9, 3:00 PM)
Average76 °F71%29.98 "Hg
* Reported Aug 8 1:00 PM — Aug 23 12:00 Noon, Brazzaville, Weather by CustomWeather, © 2014

Note: Actual official high and low records may vary slightly from our data, if they occured in-between our weather recording intervals... More about our weather records

Advertising

Brazzaville weather history for previous 24 hours

 ConditionsComfort  
Time TempWeatherWind HumidityBarometerVisibility
12:00 PM
Aug 23
84 °FScattered clouds.6 mph55%29.95 "HgN/A
11:00 AM82 °FPassing clouds.5 mph62%29.98 "HgN/A
10:00 AM77 °FScattered clouds.5 mph69%30.01 "Hg4 mi
9:00 AM75 °FPassing clouds.3 mph74%30.01 "Hg4 mi
8:00 AM72 °FPassing clouds.3 mph83%30.01 "Hg4 mi
7:00 AM70 °FClear.No wind83%29.98 "Hg4 mi
6:00 AM70 °FPassing clouds.3 mph83%29.98 "Hg5 mi
5:00 AM70 °FPassing clouds.1 mph83%29.98 "Hg5 mi
4:00 AM72 °FPassing clouds.5 mph78%29.98 "Hg5 mi
3:00 AM72 °FPassing clouds.3 mph78%29.98 "Hg5 mi
2:00 AM73 °FPassing clouds.3 mph78%29.98 "Hg5 mi
1:00 AM73 °FPassing clouds.3 mph78%30.01 "Hg5 mi
12:00 AM75 °FPassing clouds.5 mph74%30.01 "Hg5 mi
11:00 PM
Aug 22
75 °FPassing clouds.5 mph74%30.04 "Hg5 mi
10:00 PM77 °FPassing clouds.5 mph69%30.04 "Hg5 mi
9:00 PM77 °FPassing clouds.6 mph69%30.01 "Hg5 mi
8:00 PM77 °FPassing clouds.5 mph69%29.98 "HgN/A
7:00 PM79 °FPassing clouds.2 mph65%29.98 "HgN/A
6:00 PM79 °FPartly sunny.5 mph61%29.95 "HgN/A
5:00 PM79 °FScattered clouds.8 mph61%29.92 "HgN/A
4:00 PM81 °FPartly sunny.8 mph58%29.92 "HgN/A
3:00 PM81 °FPartly sunny.9 mph62%29.92 "HgN/A
2:00 PM81 °FPartly sunny.8 mph62%29.95 "HgN/A
1:00 PM79 °FBroken clouds.9 mph61%29.98 "Hg5 mi
Weather by CustomWeather, © 2014

See weather overviewHow to use our weather pages